| time (UTC) | temp F | wind direction | speed MPH | gust MPH | rain 1hr in | rain 24hr in | rain mn in | humidity % | barometer mb |
| 20260506150353 | 59 | 17 | 8.0 | 13.0 | 0.00 | 0.00 | 0.00 | 46 | 1013.1 |
| 20260506143325 | 57 | 25 | 6.0 | 10.0 | 0.00 | 0.00 | 0.00 | 52 | 1013.3 |
| 20260506140319 | 57 | 13 | 4.0 | 10.0 | 0.00 | 0.00 | 0.00 | 53 | 1013.4 |
| 20260506133332 | 60 | 13 | 6.0 | 13.0 | 0.00 | 0.00 | 0.00 | 51 | 1013.4 |
| 20260506130325 | 58 | 17 | 8.0 | 14.0 | 0.00 | 0.00 | 0.00 | 54 | 1013.5 |
| 20260506123320 | 58 | 31 | 7.0 | 16.0 | 0.00 | 0.00 | 0.00 | 56 | 1013.4 |
| 20260506120330 | 56 | 15 | 6.0 | 13.0 | 0.00 | 0.00 | 0.00 | 58 | 1013.7 |
| 20260506113324 | 55 | 11 | 7.0 | 13.0 | 0.00 | 0.00 | 0.00 | 59 | 1013.8 |
| 20260506110338 | 54 | 51 | 7.0 | 11.0 | 0.00 | 0.00 | 0.00 | 62 | 1013.9 |
| 20260506103332 | 52 | 19 | 7.0 | 13.0 | 0.00 | 0.00 | 0.00 | 64 | 1014.2 |
| 20260506100327 | 50 | 344 | 6.0 | 10.0 | 0.00 | 0.00 | 0.00 | 70 | 1014.1 |
| 20260506093322 | 48 | 360 | 8.0 | 15.0 | 0.00 | 0.00 | 0.00 | 72 | 1014.1 |
| 20260506090316 | 47 | 34 | 4.0 | 10.0 | 0.00 | 0.00 | 0.00 | 77 | 1014.1 |
| 20260506083329 | 46 | 61 | 3.0 | 8.0 | 0.00 | 0.00 | 0.00 | 79 | 1014.0 |
| 20260506080323 | 45 | 44 | 6.0 | 10.0 | 0.00 | 0.00 | 0.00 | 81 | 1014.0 |
| 20260506073316 | 45 | 26 | 6.0 | 10.0 | 0.00 | 0.00 | 0.00 | 82 | 1013.9 |
| 20260506070330 | 45 | 19 | 6.0 | 9.0 | 0.00 | 0.00 | 0.00 | 84 | 1013.8 |
| 20260506060319 | 44 | 30 | 6.0 | 9.0 | 0.00 | 0.00 | 0.00 | 84 | 1013.5 |
| 20260506050325 | 44 | 28 | 5.0 | 7.0 | 0.00 | 0.00 | 0.00 | 83 | 1013.4 |
| 20260506043320 | 44 | 44 | 2.0 | 7.0 | 0.00 | 0.00 | 0.00 | 82 | 1013.3 |
| 20260506040314 | 44 | 32 | 5.0 | 9.0 | 0.00 | 0.00 | 0.00 | 81 | 1013.2 |
| 20260506033329 | 45 | 45 | 5.0 | 9.0 | 0.00 | 0.00 | 0.00 | 82 | 1013.4 |
| 20260506030321 | 45 | 29 | 4.0 | 7.0 | 0.00 | 0.00 | 0.00 | 82 | 1013.4 |
| 20260506023332 | 46 | 49 | 6.0 | 11.0 | 0.00 | 0.00 | 0.00 | 84 | 1013.4 |
| 20260506020325 | 47 | 67 | 4.0 | 9.0 | 0.00 | 0.00 | 0.00 | 84 | 1013.3 |
| 20260506013320 | 47 | 65 | 4.0 | 6.0 | 0.00 | 0.00 | 0.00 | 82 | 1013.4 |
| 20260506010335 | 47 | 74 | 4.0 | 11.0 | 0.00 | 0.00 | 0.00 | 81 | 1013.5 |
| 20260506003327 | 48 | 42 | 6.0 | 11.0 | 0.00 | 0.00 | 0.00 | 79 | 1013.6 |
| 20260506000322 | 48 | 49 | 8.0 | 12.0 | 0.00 | 0.00 | 0.00 | 79 | 1013.5 |
| 20260505233334 | 49 | 40 | 6.0 | 11.0 | 0.00 | 0.00 | 0.00 | 82 | 1013.4 |
| 20260505230344 | 50 | 57 | 7.0 | 12.0 | 0.00 | 0.00 | 0.00 | 82 | 1013.5 |
| 20260505223336 | 51 | 59 | 6.0 | 11.0 | 0.00 | 0.00 | 0.00 | 81 | 1013.4 |
| 20260505220329 | 51 | 19 | 4.0 | 11.0 | 0.00 | 0.00 | 0.00 | 82 | 1013.2 |
| 20260505213325 | 52 | 16 | 8.0 | 12.0 | 0.00 | 0.00 | 0.00 | 80 | 1013.1 |
| 20260505210337 | 52 | 36 | 7.0 | 12.0 | 0.00 | 0.00 | 0.00 | 73 | 1013.0 |
| 20260505203330 | 53 | 355 | 5.0 | 9.0 | 0.00 | 0.00 | 0.00 | 72 | 1012.9 |
| 20260505200325 | 53 | 13 | 4.0 | 8.0 | 0.00 | 0.00 | 0.00 | 71 | 1012.7 |
| 20260505193319 | 54 | 344 | 5.0 | 11.0 | 0.00 | 0.00 | 0.00 | 69 | 1012.5 |
| 20260505190313 | 55 | 9 | 5.0 | 10.0 | 0.00 | 0.00 | 0.00 | 69 | 1012.3 |
| 20260505183324 | 55 | 5 | 6.0 | 12.0 | 0.00 | 0.00 | 0.00 | 67 | 1012.1 |
| 20260505180339 | 56 | 14 | 6.0 | 11.0 | 0.00 | 0.00 | 0.00 | 64 | 1012.2 |
| 20260505173332 | 57 | 44 | 6.0 | 9.0 | 0.00 | 0.00 | 0.00 | 63 | 1012.2 |
| 20260505170327 | 57 | 19 | 6.0 | 12.0 | 0.00 | 0.00 | 0.00 | 63 | 1012.3 |
| 20260505163322 | 58 | 58 | 5.0 | 11.0 | 0.00 | 0.00 | 0.00 | 63 | 1012.3 |
| 20260505160337 | 59 | 58 | 6.0 | 10.0 | 0.00 | 0.00 | 0.00 | 61 | 1012.2 |
| 20260505153330 | 60 | 30 | 6.0 | 12.0 | 0.00 | 0.00 | 0.00 | 59 | 1012.4 |